Overview Statistics Trail Chart Weather Telemetry Raw packets
 

This is the latest recevied weather packets stored in our database for station/object GBTWP-2. If no packets are shown the sender has not sent any weather packets the latest 10 day(s).

<< 46 47 48 49 50 51 52 >>
Time Temp. Humidity Pressure Rain* Wind** Luminosity Snow
1788366119 31.67° C 67% 1017.7 hPa 0 mm - 402 W/m² -
1788365821 31.67° C 67% 1017.6 hPa 0 mm - 379 W/m² -
1788365519 31.11° C 69% 1017.8 hPa 0 mm - 408 W/m² -
1788365220 31.11° C 68% 1017.7 hPa 0 mm - 374 W/m² -
1788364919 31.11° C 68% 1017.8 hPa 0 mm - 394 W/m² -
1788364620 31.11° C 71% 1017.8 hPa 0 mm - 389 W/m² -
1788364319 31.11° C 69% 1017.8 hPa 0 mm - 392 W/m² -
1788364020 31.11° C 68% 1017.7 hPa 0 mm - 309 W/m² -
1788363720 30.56° C 68% 1017.5 hPa 0 mm - 314 W/m² -
1788363419 30.56° C 68% 1017.7 hPa 0 mm - 287 W/m² -
1788363119 31.11° C 68% 1017.8 hPa 0 mm - 263 W/m² -
1788362820 31.11° C 68% 1017.7 hPa 0 mm - 207 W/m² -
1788362517 31.67° C 68% 1017.7 hPa 0 mm - 123 W/m² -
1788362220 31.67° C 64% 1017.3 hPa 0 mm - 364 W/m² -
1788361920 31.11° C 68% 1016.9 hPa 0 mm - 486 W/m² -
1788361620 31.11° C 68% 1017.1 hPa 0 mm - 470 W/m² -
1788361319 31.11° C 69% 1017 hPa 0 mm - 384 W/m² -
1788361020 31.11° C 71% 1017 hPa 0 mm - 399 W/m² -
1788360719 30.56° C 70% 1017 hPa 0 mm - 422 W/m² -
1788360426 30.56° C 71% 1017.1 hPa 0 mm - 362 W/m² -
1788360119 30° C 71% 1017.1 hPa 0 mm - 392 W/m² -
1788359820 30° C 73% 1016.8 hPa 0 mm - 349 W/m² -
1788359517 29.44° C 75% 1017.2 hPa 0 mm - 373 W/m² -
1788359220 29.44° C 75% 1017 hPa 0 mm - 339 W/m² -
1788358919 29.44° C 75% 1017 hPa 0 mm - 181 W/m² -

* Rain latest hour (hover to see other rain measurements)
** Current wind speed in m/s (hover to see current wind gust speed)